Back to catalog

THORAD AGENA D DEB

AliveLEO
NORAD 4951·DEBRIS·🇺🇸 United States

Launched Apr 8, 1970 from Vandenberg Space Force Base

Loading…

Next Passes (next 24 hours)

TLE

FreshSource: Space-Track

Epoch: Sep 14, 2026, 23:01 UTC

1 04951U 70025GM  26257.95959330  .00000107  00000-0  20426-3 0  9993
2 04951 100.1894 257.5924 0016791 261.6886 126.5758 13.61281792795059

Track THORAD AGENA D DEB in real time with AllMySat

Download on the App Store